Location: Dumpton Point
(51.3500°N, 1.4433°E)
Time: 05:34:32
(UTC+00:00)

Altair - Pass Details

Date: 05 October 2022
Orbit: 1501 x 1682 km, 47.2° (Epoch: 26 November)

Event Time Altitude Azimuth Distance (km) Brightness Sun altitude
Rises 01:42:10 0° 165° (SSE) 4,729 - -37.1°
Exits shadow 01:47:07 - 141° (SE) 3,972 9.5 -36.6°
Reaches altitude 10° 01:49:59 10° 124° (SE) 3,814 9.6 -36.3°
Maximum altitude 01:50:38 10° 120° (ESE) 3,813 9.6 -36.3°
Drops below altitude 10° 01:51:17 10° 117° (ESE) 3,825 9.7 -36.2°
Sets 01:59:16 0° 77° (ENE) 4,876 10.8 -35.4°
